軌道要素
Epoch 2012 June 2.0 TT = JDT 2456080.5
T 2012 June 10.75829 TT MPC
q 1.4989369 (2000.0) P Q
n 0.11266869 Peri. 32.85481 +0.94854627 -0.30952463
a 4.2455492 Node 344.74084 +0.20693036 +0.76551183
e 0.6469392 Incl. 14.69021 +0.23966602 +0.56407991
P 8.75
From 441 observations 2003 July 30-2012 June 23, mean residual 0".6.
|